Weather History for Springfield, OH

Change the Weather History Date:

Thursday, February 21, 2013

  Actual Average (KDAY) Record (KDAY)
Temperature  
Mean Temperature 21 °F 32 °F  
Max Temperature 24 °F 41 °F 68 °F (1930)
Min Temperature 18 °F 24 °F -4 °F (2008)
Degree Days  
Heating Degree Days 44 33  
Month to date heating degree days 733  
Since 1 July heating degree days 4056  
Cooling Degree Days 0 0  
Month to date cooling degree days 0  
Year to date cooling degree days 0  
Moisture  
Dew Point 14 °F    
Average Humidity 75    
Maximum Humidity 82    
Minimum Humidity 71    
Precipitation  
Precipitation 0.00 in 0.08 in 1.39 in (1945)
Month to date precipitation 1.67  
Year to date precipitation 4.38  
Snow  
Snow 0.00 in 0.20 in 9.00 in (1912)
Month to date snowfall 4.5  
Since 1 July snowfall 17.9  
Snow Depth -    
Sea Level Pressure  
Sea Level Pressure 30.31 in    
Wind  
Wind Speed 9 mph (NE)    
Max Wind Speed 18 mph    
Max Gust Speed 25 mph    
Visibility 8 miles    
Events      
T = Trace of Precipitation, MM = Missing Value Source: NWS Daily Summary

Daily Weather History Graph

Daily Weather History Graph

Search for Another Location

Airport:

Trip Planner

Search our weather history database for the weather conditions in past years. The results will help you decide how hot, cold, wet, or windy it might be!

Date:

Astronomy

Feb. 21, 2013 Rise Set
Actual Time 7:19 AM EST 6:18 PM EST
Civil Twilight 6:52 AM EST 6:46 PM EST
Nautical Twilight 6:20 AM EST 7:17 PM EST
Astronomical Twilight 5:49 AM EST 7:48 PM EST
Moon 2:32 PM EST (2/21) 4:23 AM EST (2/21)
Length of Visible Light 11h 53m
Length of Day
10h 59m
Waxing Gibbous, 83% of the Moon is Illuminated
Feb 21
Waxing Gibbous
Feb 25
Full
Mar 4
Last Quarter
Mar 11
New
Mar 19
First Quarter

Hourly Weather History & Observations

Time (EST) Temp. Windchill Dew Point Humidity Pressure Visibility Wind Dir Wind Speed Gust Speed Precip Events Conditions
12:56 AM 18.1 °F 8.9 °F 12.0 °F 77% 30.32 in 8.0 mi WNW 6.9 mph - 0.00 in   Overcast
1:56 AM 19.0 °F 11.1 °F 12.0 °F 74% 30.32 in 8.0 mi NW 5.8 mph - 0.00 in   Overcast
2:56 AM 19.0 °F 9.0 °F 12.0 °F 74% 30.33 in 9.0 mi NW 8.1 mph - N/A   Overcast
3:56 AM 19.0 °F 6.1 °F 13.1 °F 78% 30.32 in 9.0 mi North 12.7 mph - 0.00 in   Overcast
4:56 AM 19.0 °F 9.0 °F 13.1 °F 78% 30.32 in 8.0 mi NNW 8.1 mph - N/A   Overcast
5:08 AM 19.4 °F 8.6 °F 12.2 °F 74% 30.28 in 8.0 mi North 9.2 mph - N/A   Overcast
5:56 AM 19.0 °F 9.0 °F 13.1 °F 78% 30.35 in 8.0 mi North 8.1 mph - 0.00 in   Overcast
6:56 AM 18.1 °F 10.0 °F 12.0 °F 77% 30.36 in 8.0 mi North 5.8 mph - 0.00 in   Overcast
7:56 AM 18.1 °F 12.9 °F 11.1 °F 74% 30.40 in 7.0 mi North 3.5 mph - N/A   Overcast
8:56 AM 19.0 °F 12.3 °F 11.1 °F 71% 30.38 in 7.0 mi North 4.6 mph - 0.00 in   Overcast
9:56 AM 20.1 °F 15.2 °F 12.0 °F 71% 30.39 in 7.0 mi North 3.5 mph - 0.00 in   Overcast
10:56 AM 21.0 °F 12.4 °F 13.1 °F 71% 30.39 in 7.0 mi East 6.9 mph - N/A   Overcast
11:56 AM 22.1 °F 12.8 °F 14.0 °F 71% 30.37 in 7.0 mi ENE 8.1 mph - N/A   Overcast
12:56 PM 23.0 °F 13.1 °F 15.1 °F 72% 30.36 in 7.0 mi ENE 9.2 mph - N/A   Overcast
1:56 PM 23.0 °F 11.1 °F 16.2 °F 75% 30.30 in 7.0 mi NE 12.7 mph - N/A   Overcast
2:56 PM 23.0 °F 11.7 °F 16.2 °F 75% 30.30 in 8.0 mi East 11.5 mph - N/A   Overcast
3:56 PM 23.0 °F 10.6 °F 16.2 °F 75% 30.28 in 7.0 mi ENE 13.8 mph - N/A   Overcast
4:56 PM 23.0 °F 13.1 °F 17.1 °F 78% 30.29 in 7.0 mi East 9.2 mph - N/A   Overcast
5:56 PM 23.0 °F 11.7 °F 16.2 °F 75% 30.30 in 7.0 mi ENE 11.5 mph - N/A   Mostly Cloudy
6:32 PM 23.0 °F 10.1 °F 15.8 °F 74% 30.22 in 8.0 mi ENE 15.0 mph - N/A   Scattered Clouds
6:56 PM 23.0 °F 9.6 °F 16.2 °F 75% 30.26 in 8.0 mi ENE 16.1 mph - N/A   Clear
7:56 PM 23.0 °F 9.6 °F 16.2 °F 75% 30.25 in 8.0 mi ENE 16.1 mph - N/A   Clear
8:56 PM 23.0 °F 11.1 °F 16.2 °F 75% 30.25 in 8.0 mi East 12.7 mph - N/A   Clear
9:56 PM 24.1 °F 12.0 °F 17.1 °F 75% 30.26 in 8.0 mi East 13.8 mph - N/A   Partly Cloudy
10:56 PM 24.1 °F 11.0 °F 17.1 °F 75% 30.21 in 9.0 mi East 16.1 mph - N/A   Partly Cloudy
11:56 PM 23.0 °F 8.7 °F 18.1 °F 82% 30.16 in 7.0 mi East 18.4 mph 25.3 mph 0.00 in   Overcast